2023/02/28 00:00:00,44.5,-1.3
2023/02/28 00:10:00,44.4,-1.1
2023/02/28 00:20:00,44.5,-1.3
2023/02/28 00:30:00,44.5,-1.2
2023/02/28 00:40:00,44.5,-1.3
2023/02/28 00:50:00,44.6,-1.1
2023/02/28 01:00:00,44.6,-1.1
2023/02/28 01:10:00,44.6,-1.0
2023/02/28 01:20:00,44.6,-1.2
2023/02/28 01:30:00,44.6,-0.5
2023/02/28 01:40:00,44.6,-0.9
2023/02/28 01:50:00,44.6,-0.9
2023/02/28 02:00:00,44.6,-0.9
2023/02/28 02:10:00,44.6,-1.1
2023/02/28 02:20:00,44.6,-0.8
2023/02/28 02:30:00,44.6,-1.2
2023/02/28 02:40:00,44.5,-1.4
2023/02/28 02:50:00,44.5,-1.7
2023/02/28 03:00:00,44.5,-1.7
2023/02/28 03:10:00,44.5,-1.7
2023/02/28 03:20:00,44.5,-2.2
2023/02/28 03:30:00,44.5,-2.4
2023/02/28 03:40:00,44.5,-2.0
2023/02/28 03:50:00,44.5,-2.0
2023/02/28 04:00:00,44.6,-2.1
2023/02/28 04:10:00,44.6,-2.1
2023/02/28 04:20:00,44.6,-2.1
2023/02/28 04:30:00,44.6,-2.9
2023/02/28 04:40:00,44.6,-2.3
2023/02/28 04:50:00,44.6,-2.3
2023/02/28 05:00:00,44.6,-2.5
2023/02/28 05:10:00,44.5,-2.1
2023/02/28 05:20:00,44.6,-2.3
2023/02/28 05:30:00,44.6,-2.4
2023/02/28 05:40:00,44.6,-1.9
2023/02/28 05:50:00,44.6,-2.2
2023/02/28 06:00:00,44.6,-1.7
2023/02/28 06:10:00,44.6,-1.7
2023/02/28 06:20:00,44.6,-2.1
2023/02/28 06:30:00,44.6,-1.7
2023/02/28 06:40:00,44.5,-1.7
2023/02/28 06:50:00,44.5,-2.1
2023/02/28 07:00:00,44.5,-2.1
2023/02/28 07:10:00,44.5,-2.3
2023/02/28 07:20:00,44.5,-2.0
2023/02/28 07:30:00,44.5,-2.0
2023/02/28 07:40:00,44.5,-1.7
2023/02/28 07:50:00,44.5,-1.7
2023/02/28 08:00:00,44.5,-0.8
2023/02/28 08:10:00,44.5,-0.2
2023/02/28 08:20:00,44.5, 6.9
2023/02/28 08:30:00,44.5, 9.7
2023/02/28 08:40:00,44.3, 9.9
2023/02/28 08:50:00,44.3, 9.6
2023/02/28 09:00:00,44.3,12.0
2023/02/28 09:10:00,44.2, 8.4
2023/02/28 09:20:00,44.2,10.5
2023/02/28 09:30:00,44.1,11.0
2023/02/28 09:40:00,44.2,10.6
2023/02/28 09:50:00,44.3,10.6
2023/02/28 10:00:00,44.2,13.5
2023/02/28 10:10:00,44.2,11.1
2023/02/28 10:20:00,44.2, 9.6
2023/02/28 10:30:00,44.1, 9.8
2023/02/28 10:40:00,44.0, 9.3
2023/02/28 10:50:00,43.8, 9.1
2023/02/28 11:00:00,43.7, 9.1
2023/02/28 11:10:00,43.4, 9.6
2023/02/28 11:20:00,43.3, 9.2
2023/02/28 11:30:00,42.9, 9.7
2023/02/28 11:40:00,42.8, 9.9
2023/02/28 11:50:00,42.2,10.1
2023/02/28 12:00:00,42.1,10.9
2023/02/28 12:10:00,42.4,10.9
2023/02/28 12:20:00,42.5,10.4
2023/02/28 12:30:00,42.7,10.5
2023/02/28 12:40:00,42.4,10.4
2023/02/28 12:50:00,42.2,10.8
2023/02/28 13:00:00,42.1,10.8
2023/02/28 13:10:00,41.9,11.3
2023/02/28 13:20:00,41.8,10.3
2023/02/28 13:30:00,42.0,10.9
2023/02/28 13:40:00,41.9,10.4
2023/02/28 13:50:00,41.6,10.6
2023/02/28 14:00:00,41.2,10.3
2023/02/28 14:10:00,41.3,10.3
2023/02/28 14:20:00,41.6,10.0
2023/02/28 14:30:00,41.5,10.2
2023/02/28 14:40:00,41.1, 9.9
2023/02/28 14:50:00,41.1,10.6
2023/02/28 15:00:00,40.9, 9.8
2023/02/28 15:10:00,41.0, 9.6
2023/02/28 15:20:00,41.0, 9.2
2023/02/28 15:30:00,41.1, 9.2
2023/02/28 15:40:00,40.7, 8.5
2023/02/28 15:50:00,40.6, 8.3
2023/02/28 16:00:00,40.9, 7.5
2023/02/28 16:10:00,40.9, 7.7
2023/02/28 16:20:00,41.0, 7.0
2023/02/28 16:30:00,41.0, 6.8
2023/02/28 16:40:00,41.0, 6.0
2023/02/28 16:50:00,40.9, 5.8
2023/02/28 17:00:00,40.9, 5.8
2023/02/28 17:10:00,41.0, 5.3
2023/02/28 17:20:00,40.9, 3.6
2023/02/28 17:30:00,40.9, 3.6
2023/02/28 17:40:00,41.0, 3.0
2023/02/28 17:50:00,40.9, 2.6
2023/02/28 18:00:00,40.8, 2.4
2023/02/28 18:10:00,40.8, 1.7
2023/02/28 18:20:00,40.8, 2.0
2023/02/28 18:30:00,40.8, 2.1
2023/02/28 18:40:00,40.8, 2.1
2023/02/28 18:50:00,40.8, 1.5
2023/02/28 19:00:00,40.9, 1.4
2023/02/28 19:10:00,40.9, 1.3
2023/02/28 19:20:00,40.9, 1.5
2023/02/28 19:30:00,40.9, 1.4
2023/02/28 19:40:00,40.9, 1.4
2023/02/28 19:50:00,41.0, 1.4
2023/02/28 20:00:00,41.0, 1.2
2023/02/28 20:10:00,41.1, 1.2
2023/02/28 20:20:00,41.1, 1.1
2023/02/28 20:30:00,41.2, 1.0
2023/02/28 20:40:00,41.2, 0.7
2023/02/28 20:50:00,41.2, 1.1
2023/02/28 21:00:00,41.1, 1.0
2023/02/28 21:10:00,41.1, 1.0
2023/02/28 21:20:00,41.1, 0.9
2023/02/28 21:30:00,41.1, 0.6
2023/02/28 21:40:00,41.1, 0.6
2023/02/28 21:50:00,41.2, 0.7
2023/02/28 22:00:00,41.1, 0.5
2023/02/28 22:10:00,41.1, 0.6
2023/02/28 22:20:00,41.1, 0.5
2023/02/28 22:30:00,41.2, 0.6
2023/02/28 22:40:00,41.1, 0.8
2023/02/28 22:50:00,41.2, 0.5
2023/02/28 23:00:00,41.3, 0.7
2023/02/28 23:10:00,41.4, 0.1
2023/02/28 23:20:00,41.4, 0.2
2023/02/28 23:30:00,41.4, 0.0
2023/02/28 23:40:00,41.4, 0.2
2023/02/28 23:50:00,41.2,-0.4
